EC5ZZ-13 Weather Reports


time (UTC)temp
F
wind
direction
speed
knots
gust
knots
rain 1hr
in
rain 24hr
in
rain mn
in
humidity
%
barometer
mb
20260507133057 75 41 3.5 6.1 0.00 0.00 0.00 47 1010.8
20260507132040 77 297 1.7 4.3 0.00 0.00 0.00 50 1010.9
20260507131027 75 78 2.6 4.3 0.00 0.00 0.00 50 1010.9
20260507130111 76 3 1.7 4.3 0.00 0.00 0.00 50 1011.0
20260507125054 73 345 1.7 5.2 0.00 0.00 0.00 54 1011.1
20260507124100 73 59 2.6 4.3 0.00 0.00 0.00 52 1011.1
20260507123027 73 42 3.5 5.2 0.00 0.00 0.00 51 1011.2
20260507122113 72 13 2.6 4.3 0.00 0.00 0.00 53 1011.3
20260507121054 71 45 2.6 6.1 0.00 0.00 0.00 50 1011.5
20260507120035 69 349 2.6 6.1 0.00 0.00 0.00 51 1011.7
20260507115021 68 7 2.6 5.2 0.00 0.00 0.00 52 1011.8
20260507114123 68 12 4.3 7.8 0.00 0.00 0.00 52 1012.1
20260507113041 70 6 4.3 7.8 0.00 0.00 0.00 55 1011.9
20260507112030 71 30 3.5 7.8 0.00 0.00 0.00 58 1011.8
20260507111105 71 69 4.3 8.7 0.00 0.00 0.00 59 1012.0
20260507110050 71 16 2.6 6.1 0.00 0.00 0.00 55 1012.1
20260507105032 72 50 2.6 7.0 0.00 0.00 0.00 52 1012.0
20260507104116 76 341 3.5 9.6 0.00 0.00 0.00 42 1012.0
20260507103100 78 26 2.6 7.8 0.00 0.00 0.00 40 1011.8
20260507102044 77 22 3.5 7.0 0.00 0.00 0.00 40 1011.9
20260507101053 77 90 3.5 5.2 0.00 0.00 0.00 42 1011.9
20260507100018 74 3 1.7 4.3 0.00 0.00 0.00 45 1011.9
20260507095107 75 4 2.6 6.1 0.00 0.00 0.00 42 1012.1
20260507094053 73 359 2.6 6.1 0.00 0.00 0.00 48 1012.1
20260507093039 72 12 1.7 3.5 0.00 0.00 0.00 51 1012.1
20260507092027 72 67 2.6 7.0 0.00 0.00 0.00 48 1012.2
20260507091113 73 8 2.6 6.1 0.00 0.00 0.00 48 1012.2
20260507085122 72 34 1.7 3.5 0.00 0.00 0.00 55 1012.2
20260507084025 69 37 1.7 3.5 0.00 0.00 0.00 56 1012.2
20260507083108 69 52 2.6 3.5 0.00 0.00 0.00 60 1012.2
20260507082057 67 13 1.7 3.5 0.00 0.00 0.00 62 1012.2
20260507081039 67 26 2.6 5.2 0.00 0.00 0.00 62 1012.2
20260507080020 67 17 2.6 6.1 0.00 0.00 0.00 60 1012.2
20260507075124 70 3 2.6 6.1 0.00 0.00 0.00 58 1012.3
20260507074047 71 48 2.6 4.3 0.00 0.00 0.00 59 1012.0
20260507073024 69 42 1.7 6.1 0.00 0.00 0.00 61 1012.0
20260507072111 67 101 1.7 3.5 0.00 0.00 0.00 61 1011.9
20260507071058 67 42 0.9 3.5 0.00 0.00 0.00 56 1011.8
20260507070042 68 0.0 1.7 0.00 0.00 0.00 58 1011.7
20260507065050 65 0.0 0.9 0.00 0.00 0.00 65 1011.6
20260507064112 60 354 0.9 1.7 0.00 0.00 0.00 72 1011.6
20260507063100 57 314 0.9 1.7 0.00 0.00 0.00 72 1011.6
20260507062049 56 350 0.9 1.7 0.00 0.00 0.00 72 1011.5
20260507061036 56 324 0.9 1.7 0.00 0.00 0.00 71 1011.5
20260507060023 56 345 0.9 1.7 0.00 0.00 0.00 72 1011.5
20260507055106 56 315 0.0 1.7 0.00 0.00 0.00 73 1011.5
20260507054052 55 0.0 0.9 0.00 0.00 0.00 74 1011.4
20260507053038 54 315 0.0 1.7 0.00 0.00 0.00 77 1011.4
20260507052139 53 315 0.9 1.7 0.00 0.00 0.00 77 1011.3
20260507051058 53 315 0.9 1.7 0.00 0.00 0.00 77 1011.1
20260507050046 53 306 2.6 3.5 0.00 0.00 0.00 79 1011.0
20260507045047 52 299 1.7 2.6 0.00 0.00 0.00 79 1010.9
20260507044112 52 315 2.6 3.5 0.00 0.00 0.00 80 1010.9
20260507043057 52 311 1.7 2.6 0.00 0.00 0.00 80 1010.8
20260507042045 52 310 1.7 2.6 0.00 0.00 0.00 81 1010.7
20260507041025 52 311 1.7 1.7 0.00 0.00 0.00 81 1010.8
20260507040150 52 342 1.7 1.7 0.00 0.00 0.00 81 1010.8
20260507035050 52 337 1.7 2.6 0.00 0.00 0.00 82 1010.8
20260507034037 52 324 2.6 3.5 0.00 0.00 0.00 81 1010.9
20260507033023 52 310 2.6 3.5 0.00 0.00 0.00 80 1011.1
20260507032107 53 341 1.7 3.5 0.00 0.00 0.00 80 1011.1
20260507031054 53 301 1.7 3.5 0.00 0.00 0.00 80 1011.2
20260507030041 53 321 2.6 3.5 0.00 0.00 0.00 80 1011.2
20260507025024 53 311 1.7 3.5 0.00 0.00 0.00 80 1011.3
20260507024111 54 293 1.7 3.5 0.00 0.00 0.00 79 1011.4
20260507023057 54 313 1.7 3.5 0.00 0.00 0.00 78 1011.3
20260507022042 54 310 1.7 3.5 0.00 0.00 0.00 78 1011.2
20260507021026 54 345 1.7 2.6 0.00 0.00 0.00 77 1011.3
20260507020114 55 314 1.7 3.5 0.00 0.00 0.00 75 1011.4
20260507015101 55 315 1.7 3.5 0.00 0.00 0.00 75 1011.4
20260507014045 55 315 1.7 3.5 0.00 0.00 0.00 74 1011.4
20260507013028 55 315 2.6 3.5 0.00 0.00 0.00 73 1011.4
20260507012108 55 312 0.9 1.7 0.00 0.00 0.00 73 1011.5
20260507011051 55 315 1.7 3.5 0.00 0.00 0.00 74 1011.5
20260507010038 54 302 1.7 2.6 0.00 0.00 0.00 77 1011.4
20260507005046 54 346 1.7 2.6 0.00 0.00 0.00 77 1011.5
20260507004105 54 320 0.9 2.6 0.00 0.00 0.00 75 1011.8
20260507003050 55 324 1.7 3.5 0.00 0.00 0.00 74 1011.7
20260507002059 55 351 2.6 3.5 0.00 0.00 0.00 75 1011.8
20260507001022 55 315 1.7 2.6 0.00 0.00 0.00 74 1011.9
20260507000107 55 323 1.7 2.6 0.00 0.00 0.00 74 1012.1
20260506235055 56 318 1.7 3.5 0.00 0.00 0.00 73 1012.1
20260506234040 56 327 1.7 2.6 0.00 0.00 0.00 73 1012.1
20260506233024 56 334 1.7 3.5 0.00 0.00 0.00 73 1012.3
20260506232112 56 312 2.6 3.5 0.00 0.00 0.00 74 1012.3
20260506231057 56 344 1.7 3.5 0.00 0.00 0.00 74 1012.2
20260506230044 56 306 1.7 2.6 0.00 0.00 0.00 74 1012.2
20260506225028 57 320 0.9 1.7 0.00 0.00 0.00 74 1012.2
20260506224127 57 315 1.7 2.6 0.00 0.00 0.00 74 1012.3
20260506223053 58 312 1.7 2.6 0.00 0.00 0.00 74 1012.3
20260506222039 58 338 0.9 3.5 0.00 0.00 0.00 74 1012.4
20260506221027 59 345 0.9 2.6 0.00 0.00 0.00 73 1012.4
20260506220114 59 335 0.9 1.7 0.00 0.00 0.00 73 1012.4
20260506215122 59 319 0.9 2.6 0.00 0.00 0.00 72 1012.4
20260506214049 60 333 0.9 1.7 0.00 0.00 0.00 72 1012.4
20260506213036 60 315 0.0 1.7 0.00 0.00 0.00 71 1012.4
20260506212113 61 0.0 0.9 0.00 0.00 0.00 70 1012.3
20260506211103 61 0.0 0.9 0.00 0.00 0.00 70 1012.3
20260506210029 61 68 0.0 1.7 0.00 0.00 0.00 70 1012.2
20260506205113 61 60 0.0 1.7 0.00 0.00 0.00 70 1011.9
20260506204047 62 90 0.0 1.7 0.00 0.00 0.00 70 1011.8
20260506203033 62 45 0.0 1.7 0.00 0.00 0.00 70 1011.7
20260506202138 62 23 0.0 1.7 0.00 0.00 0.00 69 1011.7
20260506201059 62 326 0.0 1.7 0.00 0.00 0.00 69 1011.6
20260506200042 62 315 0.0 1.7 0.00 0.00 0.00 68 1011.5
20260506195028 63 255 0.0 1.7 0.00 0.00 0.00 68 1011.3
20260506194113 63 344 0.0 1.7 0.00 0.00 0.00 67 1011.2
20260506193059 63 0 0.0 1.7 0.00 0.00 0.00 67 1011.1
20260506192047 63 26 0.9 1.7 0.00 0.00 0.00 65 1011.0
20260506191054 64 328 0.9 3.5 0.00 0.00 0.00 61 1010.9
20260506190019 65 330 0.9 1.7 0.00 0.00 0.00 60 1010.9
20260506185107 66 356 1.7 3.5 0.00 0.00 0.00 56 1010.7
20260506184054 68 335 1.7 2.6 0.00 0.00 0.00 54 1010.6
20260506183040 68 333 0.9 2.6 0.00 0.00 0.00 53 1010.6
20260506182048 67 339 1.7 3.5 0.00 0.00 0.00 54 1010.5
20260506181114 68 297 0.9 2.6 0.00 0.00 0.00 53 1010.4
20260506180100 70 270 2.6 7.0 0.00 0.00 0.00 52 1010.2
20260506175127 69 287 0.9 3.5 0.00 0.00 0.00 53 1010.3
20260506174030 69 355 1.7 4.3 0.00 0.00 0.00 52 1010.2
20260506173117 69 287 1.7 4.3 0.00 0.00 0.00 52 1010.1
20260506172105 69 226 1.7 5.2 0.00 0.00 0.00 52 1010.2
20260506171053 68 326 1.7 3.5 0.00 0.00 0.00 51 1010.3
20260506170039 70 306 2.6 3.5 0.00 0.00 0.00 50 1010.4
20260506165023 71 349 2.6 5.2 0.00 0.00 0.00 50 1010.5
20260506164123 70 341 2.6 4.3 0.00 0.00 0.00 51 1010.5
20260506163108 69 38 1.7 3.5 0.00 0.00 0.00 50 1010.4
20260506162034 71 278 2.6 7.0 0.00 0.00 0.00 47 1010.5
20260506161041 72 224 2.6 7.0 0.00 0.00 0.00 47 1010.3
20260506160109 72 331 3.5 7.0 0.00 0.00 0.00 46 1010.2
20260506155056 73 149 2.6 5.2 0.00 0.00 0.00 43 1010.3
20260506154042 73 59 3.5 5.2 0.00 0.00 0.00 43 1010.3
20260506153030 73 266 2.6 6.1 0.00 0.00 0.00 44 1010.2
20260506152137 72 345 3.5 7.0 0.00 0.00 0.00 49 1010.2
20260506151105 70 345 2.6 7.8 0.00 0.00 0.00 53 1010.2
20260506150051 69 356 2.6 4.3 0.00 0.00 0.00 53 1010.3
20260506145038 69 61 2.6 6.1 0.00 0.00 0.00 53 1010.6
20260506144023 70 275 3.5 7.0 0.00 0.00 0.00 53 1010.6
20260506143110 70 322 2.6 6.1 0.00 0.00 0.00 53 1010.5
20260506142053 70 279 2.6 6.1 0.00 0.00 0.00 53 1010.6
20260506141100 71 301 3.5 6.1 0.00 0.00 0.00 52 1010.8
20260506140024 71 252 3.5 7.0 0.00 0.00 0.00 53 1010.7
20260506135108 71 199 3.5 5.2 0.00 0.00 0.00 53 1010.8
20260506134054 71 350 3.5 7.0 0.00 0.00 0.00 52 1010.7